#timestamp,LO_Frequency,Hit,StdDev 
1623481215.3,286047002.6,N
1623481235.2,286047002.3,N
1623481255.9,286047002.6,N
1623481275.7,286046999.7,N
1623481295.6,286047000.6,N
1623481315.4,286047001.2,N
1623481335.2,286046998.3,N
1623481355.1,286047001.0,N
1623481356.0,286047001.0,N
1623481375.8,286047001.2,N
1623481395.7,286047000.9,N
1623481415.5,286046998.2,N
1623481435.3,286047000.6,N
1623481455.2,286046998.1,N
1623481475.0,286047000.2,N
1623481475.9,286047000.2,N
1623481495.7,286047000.2,N
1623481515.6,286047002.7,N
1623481535.4,286047000.1,N
1623481555.3,286047002.8,N
1623481575.1,286046999.7,N
1623481595.8,286047000.8,N
1623481615.7,286047001.2,N
1623481635.5,286047000.9,N
1623481655.4,286046996.9,N
1623481675.2,286046998.8,N
1623481695.0,286046998.2,N
1623481695.9,286046998.2,N
1623481715.8,286047002.6,N
1623481735.6,286047000.7,N
1623481755.4,286047000.8,N
1623481775.3,286047000.0,N
1623481795.1,286047000.6,N
1623481815.9,286046999.8,N
1623481835.7,286047000.3,N
1623481855.5,286047002.6,N
1623481875.4,286047001.5,N
1623481895.2,286047001.8,N
1623481915.0,286047000.4,N
1623481915.9,286047000.4,N
1623481935.8,286046999.9,N
1623481955.6,286046999.7,N
1623481975.5,286047000.5,N
1623481995.3,286047002.4,N
1623482015.1,286047004.1,N
1623482035.9,286047002.1,N
1623482055.7,286047002.2,N
1623482075.5,286047002.1,N
1623482095.4,286047001.3,N
1623482115.2,286047002.6,N
1623482135.1,286047002.1,N
1623482136.0,286047002.1,N
1623482155.8,286047002.4,N
1623482175.6,286047002.2,N
1623482195.5,286047000.3,N
1623482215.3,286047002.7,N
1623482235.1,286046999.9,N
1623482255.9,286047000.0,N
1623482275.7,286046999.9,N
1623482295.6,286047002.4,N
1623482315.4,286047001.4,N
1623482335.2,286047003.9,Y
1623482355.1,286046999.7,P
1623482375.3,286047002.3,N
1623482395.1,286046999.8,N
1623482415.9,286047000.5,N
1623482435.7,286047000.9,N
1623482455.5,286047001.2,N
1623482475.4,286047000.2,N
1623482495.2,286046999.8,N
1623482515.1,286047002.4,N
1623482516.0,286047002.4,N
1623482535.8,286047002.6,N
1623482555.6,286047002.5,N
1623482575.5,286047000.1,N
1623482595.3,286047000.4,N
1623482615.1,286046999.7,N
1623482635.9,286047000.0,N
1623482655.7,286047001.1,N
1623482675.6,286046998.9,N
1623482695.4,286046998.9,N
1623482715.2,286046998.8,N
1623482735.1,286046998.4,N
1623482736.0,286046998.4,N
1623482755.8,286047001.0,N
1623482775.6,286047000.6,N
1623482795.5,286046998.4,N
1623482815.3,286047011.9,Y
1623482835.2,286047000.7,P
1623482855.9,286047000.3,N
1623482875.7,286046998.2,P
1623482895.6,286046998.2,N
1623482915.4,286047001.1,N
1623482935.2,286047001.2,N
1623482955.1,286046998.1,N
1623482956.0,286046998.1,N
1623482975.8,286047002.4,N
1623482995.7,286047002.9,N
1623483015.5,286047005.8,Y
1623483035.3,286047005.0,P
1623483055.2,286047005.4,N
1623483075.0,286047005.0,N
1623483075.9,286047005.0,N
1623483095.8,286047006.5,Y
1623483115.6,286047001.4,P
1623483135.4,286047000.6,N
1623483155.3,286046999.2,N
1623483175.1,286046995.4,N
1623483195.9,286046996.7,N
1623483215.7,286046997.8,N
1623483235.5,286046994.9,N
1623483255.4,286046996.3,N
1623483275.2,286046993.4,N
1623483295.0,286046996.4,N
1623483295.9,286046996.4,N
1623483315.8,286046994.5,N
1623483335.6,286046992.1,N
1623483355.5,286046992.0,N
1623483375.3,286046992.4,N
1623483395.1,286046992.1,N
1623483415.9,286046991.7,N
1623483435.7,286046991.9,N
1623483455.5,286046990.6,N
1623483475.4,286046990.3,N
1623483495.2,286046991.1,N
1623483515.1,286046991.5,N
1623483516.0,286046991.5,N
1623483535.8,286046991.3,N
1623483555.6,286046991.5,N
1623483575.5,286046988.5,Y
1623483595.3,286046995.1,P
1623483615.2,286046997.6,P
1623483635.9,286046997.9,N
1623483655.7,286046997.1,N
1623483675.6,286046997.6,N
1623483695.4,286046996.1,N
1623483715.2,286046995.4,Y
1623483735.1,286046998.6,P
1623483736.0,286046998.6,N
1623483755.8,286046998.8,N
1623483775.7,286046999.5,N
1623483795.5,286046997.7,N
1623483815.3,286046997.9,N
1623483835.2,286046995.5,Y
1623483855.0,286046999.0,P
1623483855.9,286046999.0,N
1623483875.7,286047000.6,N
1623483895.6,286046996.5,Y
1623483915.4,286046999.5,P
1623483935.3,286046996.6,P
1623483955.1,286046998.5,N
1623483975.8,286046998.8,N
1623483995.7,286047000.4,N
1623484015.5,286046999.7,N
1623484035.3,286047000.2,N
1623484055.2,286047000.1,N
1623484075.0,286047000.4,N
1623484075.9,286047000.4,N
1623484095.8,286046999.8,N
1623484115.6,286047002.7,N
1623484135.4,286047002.6,N
1623484155.3,286047000.2,N
1623484175.1,286047002.4,N
1623484195.9,286046999.9,N
1623484215.7,286047000.4,N
1623484235.5,286047002.2,N
1623484255.4,286047001.6,N
1623484275.2,286047002.7,N
1623484295.0,286047002.6,N
1623484295.9,286047002.6,N
1623484315.8,286047000.1,N
1623484335.6,286047002.3,N
1623484355.5,286047002.4,N
1623484375.3,286047000.6,N
1623484395.1,286047000.3,N
1623484415.9,286046999.8,N
1623484435.7,286046999.9,N
1623484455.5,286046998.1,N
1623484475.4,286046999.9,N
1623484495.2,286047002.3,N
1623484515.0,286047002.3,N
1623484516.0,286047002.3,N
1623484535.8,286047004.3,Y
1623484555.6,286047002.5,P
1623484575.5,286047000.2,N
1623484595.3,286046999.8,N
1623484615.1,286047002.4,N
1623484635.9,286046999.9,N
1623484655.7,286047000.5,N
1623484675.6,286047000.3,N
1623484695.4,286047000.0,N
1623484715.2,286047000.8,N
1623484735.1,286047000.8,N
1623484736.0,286047000.8,N
1623484755.8,286046999.9,N
1623484775.7,286047000.9,N
1623484795.5,286047002.6,Y
